Find ICEYE-X54

NORAD ID: 64570 Int'l Des: 2025-135 Owner: ICEYE Country: FI Constellation: iceye operational
LEOCIRCULARRETROGRADESSO

实时位置

正在加载3D地球...

关于 ICEYE-X54

正在加载描述...

即将过境

Passes for default location (London). Set your location on the main map for personalized predictions.

高度历史

Loading altitude history...

两行轨道根数

1 64570U 25135AU 26105.61790662 .00001627 00000-0 15720-3 0 9993
2 64570 97.7639 220.6975 0003141 138.0558 222.0903 14.94192673 44557
Epoch: Apr 15, 2026 • Age: 5 hours

当前状态

高度 611.0 km
速度 7.55 km/s
星下点 -62.72°S, 101.66°E
发射日期 Jun 23, 2025
运行时间 0.8 years
类型 earth observation

技术详情

分类 Payload
质量 80.00 kg
干质量 80.00 kg
总质量 80.00 kg
长度 0.80 m
直径 0.60 m
跨度 1.50 m
形状 Box + pan
制造商 ICEYE
平台类型 ICEYE
阶段状态 In Orbit
所有者/国家 ICEYE/FI

Most Searched